Starlink 4286

operational
NORAD ID: 52990 Int'l Des: 2022-076 Owner: SPXS Country: US Constellation: starlink
LEOCIRCULAR

Über Starlink 4286

Beschreibung wird geladen...

Live-Position

3D-Globus wird geladen...

Nächste Überflüge

Höhenverlauf

Altitude vs Time

uPlot chart will show altitude changes over time

Zweizeiliger Elementsatz

1 52990U 22076E 25353.46069995 -.00000382 00000-0 -59429-5 0 9997
2 52990 53.2170 104.2815 0001293 89.0946 271.0194 15.08840186190596
Epoch: 19. Dez. 2025 • Age: 14 hours

Aktueller Status

Höhe 543.0 km
Geschwindigkeit 7.59 km/s
Subsatellitenpunkt -11.36°S, 167.99°W
Startdatum 7. Juli 2022
Alter 3.4 years
Typ internet

Technische Details

Klassifizierung Payload
Masse 297.00 kg
Trockenmasse 275.00 kg
Gesamtmasse 297.00 kg
Länge 0.20 m
Durchmesser 2.80 m
Spannweite 9.00 m
Form Box + pan
Hersteller SPXS
Bus-Typ Starlink
Phasenstatus In Orbit
Besitzer/Staat SPXS/US

Große Konstellationen

Loading constellations...